Location: Trebic
(49.2170°N, 15.8830°E)
Time: 19:27:23
(UTC+02:00)

Courier 1B Rocket - All Passes

Search period start: 23 August 2019 00:00
Search period end: 02 September 2019 00:00
Orbit: 920 x 1202 km, 28.3° (Epoch: 22 August)

Date Brightness Start Highest point End Pass type
(mag) Time Alt. Az. Time Alt. Az. Time Alt. Az.
23 Aug - 05:25:06 10° SSW 05:28:49 14° S 05:32:34 10° SSE visible
23 Aug - 07:18:00 10° SW 07:20:59 13° SSW 07:24:00 10° SSE daylight
24 Aug - 04:24:57 10° SSW 04:28:05 13° S 04:31:15 10° SE visible
24 Aug - 06:16:41 10° SW 06:20:14 14° S 06:23:49 10° SSE daylight
25 Aug - 03:25:37 10° S 03:27:23 11° SSE 03:29:10 10° SSE visible
25 Aug - 05:15:51 10° SSW 05:19:29 14° S 05:23:12 10° SSE visible
25 Aug - 07:10:34 10° SSW 07:11:37 10° SSW 07:12:41 10° S daylight
26 Aug - 04:15:23 10° SSW 04:18:46 14° S 04:22:11 10° SSE visible
26 Aug - 06:08:13 10° SSW 06:10:54 12° S 06:13:37 10° S daylight
27 Aug - 03:15:25 10° SSW 03:18:04 12° S 03:20:46 10° SSE visible
27 Aug - 05:07:00 10° SSW 05:10:11 13° S 05:13:25 10° SSE visible
28 Aug - 02:16:52 10° S 02:17:25 10° SSE 02:17:59 10° SSE visible
28 Aug - 04:06:15 10° SSW 04:09:28 13° S 04:12:44 10° SSE visible
29 Aug - 03:05:55 10° SSW 03:08:47 13° S 03:11:41 10° SSE visible
29 Aug - 04:58:48 10° SSW 05:00:52 11° S 05:02:58 10° S visible
30 Aug - 02:06:10 10° S 02:08:08 11° S 02:10:07 10° SSE visible
30 Aug - 03:57:34 10° SSW 04:00:11 12° S 04:02:50 10° SSE visible
31 Aug - 02:56:54 10° SSW 02:59:31 12° S 03:02:11 10° SSE visible
01 Sep - 01:56:41 10° SSW 01:58:52 12° S 02:01:06 10° SSE night (unlit)
01 Sep - 03:50:03 10° SSW 03:50:55 10° S 03:51:46 10° S visible
